Location: Newark
(45.2500°N, 7.5833°E)
Time: 16:12:52
(UTC+00:00)

ISS - Visible Passes

Search period start: 15 December 2019 00:00
Search period end: 25 December 2019 00:00
Orbit: 411 x 421 km, 51.6° (Epoch: 16 December)

Date Brightness Start Highest point End Pass type
(mag) Time Alt. Az. Time Alt. Az. Time Alt. Az.
20 Dec -0.6 06:07:54 10° S 06:10:02 16° SE 06:12:10 10° E visible
22 Dec -2.3 06:06:14 10° SSW 06:09:22 39° SE 06:12:29 10° ENE visible
23 Dec -1.4 05:18:11 10° SSW 05:20:56 24° SE 05:23:40 10° E visible
24 Dec -0.9 04:31:35 14° SSE 04:32:31 15° SE 04:34:29 10° E visible
24 Dec -3.8 06:05:31 10° WSW 06:08:51 86° NNW 06:12:11 10° ENE visible
